Weather in Jirgatol

Tajikistan     39°13′26″N   71°12′11″E
temp.,
°C
wind,
m/s
gust,
m/s
humid.,
%
clouds,
%
prec.,
mm/h
press.,
hPa
HPBL,
m
25 january, tue
tue2523:00−20n1265100 0.0 104013
02:00−21n126574 0.0 104112
05:00−21n1262100 0.0 104112
08:00−21n125894 0.0 104213
11:00−13ene10495 0.0 1033231
14:00−11sw01555 0.0 1029276
17:00−17n12743 0.0 103410
20:00−21nnw13530 0.0 104212
26 january, wed
wed2623:00−22n13530 0.0 104611
02:00−23n12573 0.0 104812
05:00−24n12590 0.0 104912
08:00−23n12600 0.0 104913
11:00−15ene11570 0.0 1040157
14:00−12ene11570 0.0 1035302
17:00−17nne12750 0.0 104010
20:00−21n13610 0.0 104614
27 january, thu
thu2723:00−22n12590 0.0 104813
02:00−22n22580 0.0 104813
05:00−22n22550 0.0 104813
08:00−22n22540 0.0 104813
11:00−13ne22560 0.0 1039152
14:00−9ene11530 0.0 1031244
17:00−15n12670 0.0 103511
20:00−19n23510 0.0 104114
28 january, fri
fri2823:00−19nnw22495 0.0 104213
02:00−19nne234894 0.0 104113
05:00−15n2252100 0.0 103614
08:00−10nne2264100 0.0 102818
11:00−6nne014693 0.0 1024200
14:00−4w1263100 0.1 1019494
17:00−6w1297100 1.4 102179
20:00−6nne1195100 2.1 102129
29 january, sat
sat2923:00−7nne229595 3.9 102038
02:00−6nnw1195100 2.2 102039
05:00−6w2296100 4.4 101983
08:00−7nnw1194100 1.7 102115
11:00−4wsw5689100 3.4 1021421
14:00−4wsw568497 0.3 1021674
17:00−9wsw329131 0.4 102620
20:00−14nnw138391 0.0 103414